User: anonymous   Login
Location: Stull Observatory
(42.2506°N, 77.7903°W)
Time: 12:55:40
(UTC-04:00)
Language:

Abrixas rocket - Orbit

View from above orbital plane
View from above orbital plane
View from above satellite
View from above satellite

Ground track
Ground track

The orbit data is extracted from the following two-line orbital elements,

1 25723U 99022C   15181.93652431  .00005584  00000-0  14121-3 0  9994
2 25723 048.4207 357.7988 0014945 207.3582 306.4158 15.41124159895364
Epoch (UTC): 30 June 2015 22:28:35
Eccentricity: 0.0014945
inclination: 48.4207°
perigee height: 432 km
apogee height: 453 km
right ascension of ascending node: 357.7988°
argument of perigee: 207.3582°
revolutions per day: 15.41124159
mean anomaly at epoch: 306.4158°
orbit number at epoch: 89536

The dashed part of the orbit path shows where the satellite is in the earth's shadow,  

DLR